Weather History for Carlsbad, NM

Change the Weather History Date:

Tuesday, December 3, 2013

  Actual Average Record
Temperature  
Mean Temperature 66 °F -  
Max Temperature 73 °F 58 °F 81 °F (1977)
Min Temperature 60 °F 31 °F 19 °F (1979)
Cooling Degree Days 2    
Growing Degree Days 16 (Base 50)    
Moisture  
Dew Point 19 °F    
Average Humidity 17    
Maximum Humidity 28    
Minimum Humidity 10    
Precipitation  
Precipitation 0.00 in - - ()
Sea Level Pressure  
Sea Level Pressure 29.57 in    
Wind  
Wind Speed 15 mph (WSW)    
Max Wind Speed 26 mph    
Max Gust Speed 34 mph    
Visibility 10 miles    
Events      
Averages and records for this station are not official NWS values.
T = Trace of Precipitation, MM = Missing Value Source: NWS Daily Summary

Daily Weather History Graph

Daily Weather History Graph

Search for Another Location

Airport:

Trip Planner

Search our weather history database for the weather conditions in past years. The results will help you decide how hot, cold, wet, or windy it might be!

Date:

Astronomy

Dec. 03, 2013 Rise Set
Actual Time 6:42 AM MST 4:51 PM MST
Civil Twilight 6:15 AM MST 5:18 PM MST
Nautical Twilight 5:45 AM MST 5:48 PM MST
Astronomical Twilight 5:15 AM MST 6:18 PM MST
Moon 7:15 AM MST (12/3) 5:56 PM MST (12/3)
Length of Visible Light 11h 02m
Length of Day
10h 09m
New Moon, 1% of the Moon is Illuminated
Dec 3
New Moon
Dec 9
First Quarter
Dec 17
Full
Dec 25
Last Quarter
Jan 1
New

Hourly Weather History & Observations

Time (MST) Temp. Dew Point Humidity Pressure Visibility Wind Dir Wind Speed Gust Speed Precip Events Conditions
12:53 AM 61.0 °F 18.0 °F 19% 29.61 in 10.0 mi West 15.0 mph - N/A   Clear
1:53 AM 62.1 °F 18.0 °F 18% 29.59 in 10.0 mi West 24.2 mph - N/A   Clear
2:53 AM 62.1 °F 18.0 °F 18% 29.59 in 10.0 mi West 24.2 mph 29.9 mph N/A   Clear
3:53 AM 63.0 °F 17.1 °F 17% 29.57 in 10.0 mi West 25.3 mph 33.4 mph N/A   Clear
4:53 AM 61.0 °F 17.1 °F 18% 29.58 in 10.0 mi West 11.5 mph - N/A   Clear
5:53 AM 60.1 °F 18.0 °F 20% 29.60 in 10.0 mi Calm Calm - N/A   Clear
6:53 AM 62.1 °F 18.0 °F 18% 29.59 in 10.0 mi WSW 15.0 mph - N/A   Clear
7:53 AM 63.0 °F 18.0 °F 18% 29.62 in 10.0 mi WSW 8.1 mph - N/A   Clear
8:53 AM 64.9 °F 16.0 °F 15% 29.65 in 10.0 mi West 18.4 mph - N/A   Clear
9:53 AM 64.9 °F 16.0 °F 15% 29.65 in 10.0 mi WSW 17.3 mph 27.6 mph N/A   Clear
10:53 AM 66.9 °F 16.0 °F 14% 29.62 in 10.0 mi WSW 20.7 mph 27.6 mph N/A   Clear
11:53 AM 70.0 °F 17.1 °F 13% 29.58 in 10.0 mi South 8.1 mph - N/A   Clear
12:53 PM 72.0 °F 15.1 °F 11% 29.55 in 4.0 mi Calm Calm - N/A   Haze
1:53 PM 72.0 °F 12.0 °F 10% 29.52 in 10.0 mi WSW 13.8 mph 20.7 mph N/A   Clear
2:53 PM 71.1 °F 12.0 °F 10% 29.49 in 10.0 mi West 26.5 mph 33.4 mph N/A   Clear
3:53 PM 73.0 °F 12.0 °F 10% 29.50 in 10.0 mi West 24.2 mph 32.2 mph N/A   Clear
4:53 PM 69.1 °F 16.0 °F 13% 29.52 in 10.0 mi WSW 9.2 mph - N/A   Clear
5:53 PM 68.0 °F 19.0 °F 15% 29.53 in 10.0 mi West 11.5 mph 18.4 mph N/A   Clear
6:53 PM 63.0 °F 21.0 °F 20% 29.56 in 10.0 mi East 4.6 mph - N/A   Clear
7:53 PM 62.1 °F 21.0 °F 21% 29.55 in 10.0 mi NNW 4.6 mph - N/A   Clear
8:53 PM 66.9 °F 21.0 °F 17% 29.55 in 10.0 mi Calm Calm - N/A   Clear
9:53 PM 66.9 °F 26.1 °F 21% 29.54 in 10.0 mi WSW 12.7 mph 24.2 mph N/A   Clear
10:53 PM 68.0 °F 30.0 °F 24% 29.55 in 10.0 mi WSW 11.5 mph 19.6 mph N/A   Clear
11:53 PM 68.0 °F 34.0 °F 28% 29.54 in 10.0 mi WSW 24.2 mph 34.5 mph N/A   Clear